CAPE
0 0 0 0 0 0 0 0 0 0 0 0 0 0 0 0 0 0 0 0 0 0 0 0 0 0 0 0 0 0 0 0 0 0 0 0 0 0 0 0 0 0 0
0 0 0 0 0 0 0 0 0 0 0 0 0 0 0 0 0 0 0 0 0 0 0 0 0 0 0 0 0 0 0 0 0 0 0 0 0 0 0 0 0 0 0
0 0 0 0 0 0 0 0 0 0 0 0 0 0 0 0 0 0 0 0 0 0 0 0 0 0 0 0 0 0 0 0 0 0 0 0 0 0 0 0 0 0 0
0 0 0 0 0 0 0 0 0 0 0 0 0 0 0 0 0 0 0 0 0 0 0 0 0 0 0 0 0 0 0 0 0 0 0 0 0 0 0 0 0 0 0
0 0 0 0 0 0 0 0 0 0 0 0 0 0 0 0 0 0 0 0 0 0 0 0 0 0 0 0 0 0 0 0 0 0 0 0 0 0 0 0 0 0 0
0 0 0 0 0 0 0 0 0 0 0 0 0 0 0 0 0 0 0 0 0 0 0 0 0 0 0 0 0 0 0 0 0 0 0 0 0 0 0 0 0 0 0
0 0 0 0 0 0 0 0 0 0 0 0 0 0 0 0 0 0 0 0 0 0 0 0 0 0 0 0 0 0 0 0 0 0 0 0 0 0 0 0 0 0 0
0 0 0 0 0 0 0 0 0 0 0 0 0 0 0 0 0 0 0 0 0 0 0 0 0 0 0 0 0 0 0 0 0 0 0 0 0 0 0 0 0 0 0
0 0 0 0 0 0 0 0 0 0 0 0 0 0 0 0 0 0 0 0 0 0 0 0 0 0 0 0 0 0 0 0 0 0 0 0 0 0 0 0 0 0 0
0 0 0 0 0 0 0 0 0 0 0 0 0 0 0 0 0 0 0 0 0 0 0 0 0 0 0 0 0 0 0 0 0 0 0 0 0 0 0 0 0 0 0
0 0 0 0 0 0 0 0 0 0 0 0 0 0 0 0 0 0 0 0 0 0 0 0 0 0 0 0 0 0 0 0 0 0 0 0 0 0 0 0 0 0 0
0 0 0 0 0 0 0 0 0 0 0 0 0 0 0 0 0 0 0 0 0 0 0 0 0 0 0 0 0 0 0 0 0 0 0 0 0 0 0 0 0 0 0
0 0 0 0 0 0 0 0 0 0 0 0 0 0 0 0 0 0 0 0 0 0 0 0 0 0 0 0 0 0 0 0 0 0 0 0 0 0 0 0 0 0 0
0 0 0 0 0 0 0 0 0 0 0 0 0 0 0 0 0 0 0 0 0 0 0 0 0 0 0 0 0 0 0 0 0 0 0 0 0 0 0 0 0 0 0
0 0 0 0 0 0 0 0 0 0 0 0 0 0 0 0 0 0 0 0 0 0 0 0 0 0 0 0 0 0 0 0 0 0 0 0 0 0 0 0 0 0 0
0 0 0 0 0 0 0 0 0 0 0 0 0 0 0 0 0 0 0 0 0 0 0 0 0 0 0 0 0 0 0 0 0 0 0 0 0 0 0 0 1 1 0
0 0 0 0 0 0 0 0 0 0 0 0 0 0 0 0 0 0 0 0 0 0 0 0 0 0 0 0 1 3 1 0 0 0 0 0 0 0 0 0 0 1 5
0 0 0 0 0 0 0 0 0 0 0 0 0 0 0 0 0 0 0 0 1 1 0 0 0 0 0 0 2 3 0 0 0 0 0 0 0 0 0 0 0 0 0
0 0 0 0 0 0 0 0 0 0 0 0 0 0 0 0 0 0 0 1 0 1 1 0 2 0 0 1 2 2 0 0 0 0 0 0 0 0 2 2 1 0 0
0 0 0 0 0 0 0 0 0 0 0 0 0 0 0 0 0 0 0 1 0 1 7 6 3 1 0 0 0 1 0 0 1 0 0 0 3 2 7 0 0 0 0
0 0 0 0 0 0 0 0 0 0 0 0 0 0 0 0 0 0 0 0 0 0 0 0 0 0 0 0 4 3 0 1 1 0 0 0 0 2 4 2 0 0 0
0 0 0 0 0 0 0 0 0 0 0 0 0 0 0 0 0 0 0 0 0 0 0 0 0 0 0 0 1 6 13 19 17 12 0 0 0 2 7 8 5 14 20
0 0 0 0 0 0 0 0 0 0 0 0 0 0 0 0 0 0 0 0 0 0 0 0 0 0 0 0 0 1 6 4 1 0 0 10 6 8 9 11 16 15 6
0 0 0 0 0 0 0 0 0 0 0 0 0 0 0 0 0 0 0 0 0 0 0 0 0 0 0 0 0 0 0 0 0 0 0 0 0 9 9 16 12 10 6
0 0 0 0 0 0 0 0 0 0 0 0 0 0 0 0 0 0 0 0 0 1 2 4 6 10 7 3 14 10 3 1 0 0 0 0 0 0 0 0 0 1 0
0 0 0 0 0 0 0 0 0 0 0 0 0 0 0 0 0 0 0 0 4 7 4 6 7 3 16 14 12 22 21 20 9 3 2 1 0 0 0 0 0 0 0
CIN
0 0 0 0 0 0 0 0 0 0 0 0 0 0 0 0 0 0 0 0 0 0 0 0 0 0 0 0 0 0 0 0 0 0 0 0 0 0 0 0 0 0 0
0 0 0 0 0 0 0 0 0 0 0 0 0 0 0 0 0 0 0 0 0 0 0 0 0 0 0 0 0 0 0 0 0 0 0 0 0 0 0 0 0 0 0
0 0 0 0 0 0 0 0 0 0 0 0 0 0 0 0 0 0 0 0 0 0 0 0 0 0 0 0 0 0 0 0 0 0 0 0 0 0 0 0 0 0 0
0 0 0 0 0 0 0 0 0 0 0 0 0 0 0 0 0 0 0 0 0 0 0 0 0 0 0 0 0 0 0 0 0 0 0 0 0 0 0 0 0 0 0
0 0 0 0 0 0 0 0 0 0 0 0 0 0 0 0 0 0 0 0 0 0 0 0 0 0 0 0 0 0 0 0 0 0 0 0 0 0 0 0 0 0 0
0 0 0 0 0 0 0 0 0 0 0 0 0 0 0 0 0 0 0 0 0 0 0 0 0 0 0 0 0 0 0 0 0 0 0 0 0 0 0 0 0 0 0
0 0 0 0 0 0 0 0 0 0 0 0 0 0 0 0 0 0 0 0 0 0 0 0 0 0 0 0 0 0 0 0 0 0 0 0 0 0 0 0 0 0 0
0 0 0 0 0 0 0 0 0 0 0 0 0 0 0 0 0 0 0 0 0 0 0 0 0 0 0 0 0 0 0 0 0 0 0 0 0 0 0 0 0 0 0
0 0 0 0 0 0 0 0 0 0 0 0 0 0 0 0 0 0 0 0 0 0 0 0 0 0 0 0 0 0 0 0 0 0 0 0 0 0 0 0 0 0 0
0 0 0 0 0 0 0 0 0 0 0 0 0 0 0 0 0 0 0 0 0 0 0 0 0 0 0 0 0 0 0 0 0 0 0 0 0 0 0 0 0 0 0
0 0 0 0 0 0 0 0 0 0 0 0 0 0 0 0 0 0 0 0 0 0 0 0 0 0 0 0 0 0 0 0 0 0 0 0 0 0 0 0 0 0 0
0 0 0 0 0 0 0 0 0 0 0 0 0 0 0 0 0 0 0 0 0 0 0 0 0 0 0 0 0 0 0 0 0 0 0 0 0 0 0 0 0 0 0
0 0 0 0 0 0 0 0 0 0 0 0 0 0 0 0 0 0 0 0 0 0 0 0 0 0 0 0 0 0 0 0 0 0 0 0 0 0 0 0 0 0 0
0 0 0 0 0 0 0 0 0 0 0 0 0 0 0 0 0 0 0 0 0 0 0 0 0 0 0 0 0 0 0 0 0 0 0 0 0 0 0 0 0 0 0
0 0 0 0 0 0 0 0 0 0 0 0 0 0 0 0 0 0 0 0 0 0 0 0 0 0 0 0 0 0 0 0 0 0 0 0 0 0 0 0 0 0 0
0 0 0 0 0 0 0 0 0 0 0 0 0 0 0 0 0 0 0 0 0 0 0 0 0 0 0 0 0 -1 0 0 0 0 0 0 0 0 0 0 -1 -2 0
0 0 0 0 0 0 0 0 0 0 0 0 0 0 0 0 0 0 0 0 0 0 0 0 0 0 0 0 -1 -1 -1 -2 0 0 0 0 0 0 0 0 -1 -1 -1
0 0 0 0 0 0 0 0 0 0 0 0 0 0 0 0 0 0 0 0 -2 -8 0 0 0 0 0 -1 -2 -2 -3 0 0 0 0 0 0 0 0 0 0 0 0
0 0 0 0 0 0 0 0 0 0 0 0 0 0 0 0 0 0 0 -1 -4 -4 -3 -2 -2 -1 0 -1 -1 -3 0 0 0 0 0 0 0 0 -1 -2 -3 0 0
0 0 0 0 0 0 0 0 0 0 0 0 0 0 0 0 0 0 -4 -5 -2 -1 -1 -1 -1 -1 0 0 -1 -4 -1 0 0 0 0 0 -2 -1 -2 0 0 0 0
0 0 0 0 0 0 0 0 0 0 0 0 0 0 0 0 0 0 0 0 0 0 0 0 0 0 0 0 -1 -3 -4 -5 -1 -3 -1 0 0 -1 -2 -5 -2 0 0
0 0 0 0 0 0 0 0 0 0 0 0 0 0 0 0 0 0 0 0 0 0 0 0 0 0 0 0 -1 -1 -1 0 -2 -4 0 0 0 -1 -2 -2 -1 -1 -1
0 0 0 0 0 0 0 0 0 0 0 0 0 0 0 0 0 0 0 0 0 0 0 0 0 0 0 0 0 -2 -2 -2 -1 0 0 0 0 0 -1 -1 -2 -1 -2
0 0 0 0 0 0 0 0 0 0 0 0 0 0 0 0 0 0 0 0 0 0 0 0 0 0 0 0 0 0 0 0 0 0 0 0 0 -3 -2 0 -1 -1 -2
0 0 0 0 0 0 0 0 0 0 0 0 0 0 0 0 0 0 0 0 0 -2 -3 -7 -5 -1 -1 -2 -2 -4 -13 -4 0 0 0 0 0 0 0 0 0 -2 -9
0 0 0 0 0 0 0 0 0 0 0 0 0 0 0 0 0 0 0 0 -1 -1 -2 -2 -3 -3 -1 -2 -2 -1 -1 -1 -1 -3 -3 -1 0 0 0 0 0 0 0
Wind_Speed
5 3 4 5 5 5 6 6 6 9 10 12 14 15 16 16 17 17 18 21 22 24 27 28 29 29 30 31 31 31 34 33 35 32 32 28 25 21 31 29 28 31 32
2 1 3 4 6 7 7 7 9 10 12 13 15 16 15 17 17 17 19 21 23 24 26 28 29 29 30 30 31 32 32 31 34 33 30 30 26 27 27 31 29 33 33
2 1 2 3 5 7 8 8 9 10 12 13 14 16 17 18 19 20 21 22 23 25 26 27 29 30 30 31 31 31 32 33 31 33 28 31 31 39 25 27 36 32 37
5 2 1 0 3 6 7 8 10 11 13 14 16 17 18 20 20 20 22 24 25 26 26 28 29 29 30 30 30 30 30 30 33 29 27 28 29 32 36 28 33 38 38
5 2 0 0 2 2 6 8 10 12 15 16 17 18 20 21 21 22 24 25 27 26 28 28 29 30 30 31 31 31 31 30 30 30 31 30 30 29 32 41 40 40 32
14 4 3 3 4 5 7 10 12 15 16 18 19 20 20 22 23 25 26 28 28 30 30 29 29 30 31 31 31 31 31 31 30 30 30 30 30 32 33 36 40 40 33
16 8 4 4 5 7 9 11 13 16 17 19 20 21 23 24 26 27 28 30 32 32 32 31 31 32 31 31 31 31 31 31 31 31 30 30 30 32 34 36 40 36 39
17 12 8 6 6 8 11 13 14 17 18 20 22 23 24 26 27 28 29 31 33 33 32 32 33 33 33 32 32 32 32 31 32 32 31 31 31 32 33 34 37 41 34
17 14 12 11 11 12 14 15 16 18 19 21 23 25 26 28 29 30 31 34 34 34 33 33 33 33 33 33 33 34 33 33 33 33 33 33 33 33 33 33 33 34 37
22 20 19 19 18 16 17 17 17 20 22 24 25 27 28 29 30 32 36 36 35 35 35 35 35 35 35 35 35 35 35 35 35 35 35 35 35 35 34 35 35 34 35
30 31 24 19 17 16 16 18 20 22 24 25 26 28 30 32 36 36 35 36 36 36 37 37 38 38 37 36 37 38 38 39 39 38 37 38 36 37 37 36 36 38 38
32 29 25 20 20 20 19 20 22 24 26 28 30 34 38 37 36 36 37 37 38 38 38 38 39 40 40 39 39 41 39 40 41 40 40 40 36 37 36 37 38 38 40
28 24 22 21 21 22 23 25 28 29 31 34 35 34 35 36 38 38 39 38 39 38 38 38 40 41 41 40 38 39 39 39 39 39 39 39 38 38 38 38 40 40 40
27 26 25 24 25 27 29 30 33 34 34 35 36 37 38 38 40 40 40 39 38 39 40 41 41 41 41 41 41 41 41 41 41 40 39 40 39 40 39 39 40 41 42
27 26 27 27 29 31 32 33 34 35 36 38 39 40 41 41 41 41 41 41 40 41 40 41 42 42 42 43 43 42 43 44 45 45 44 43 43 43 42 41 40 41 43
28 29 29 30 30 31 32 33 35 37 38 41 42 43 43 42 42 43 44 44 44 43 43 44 44 45 44 45 45 45 45 45 45 47 45 44 45 47 48 47 46 44 43
28 28 27 28 30 32 32 35 37 38 41 42 43 43 43 45 46 45 45 46 47 46 45 45 44 46 45 44 45 45 44 44 44 43 42 42 41 44 45 47 48 49 49
26 27 28 29 30 32 34 36 38 41 43 43 43 43 44 45 45 46 46 46 44 45 46 46 46 44 43 45 46 46 44 43 42 41 40 40 41 41 42 44 47 48 49
27 29 28 28 31 34 36 38 40 41 42 42 42 42 44 46 46 47 47 46 45 45 44 43 42 40 42 43 43 42 40 39 39 37 36 36 38 39 41 44 46 47 49
28 28 29 30 34 36 38 40 42 41 41 41 42 44 44 45 47 45 43 41 40 41 39 39 38 38 42 41 40 38 35 36 35 33 33 35 38 38 38 39 42 46 47
30 28 30 32 34 35 37 39 38 39 39 40 42 42 41 40 40 39 37 37 36 35 35 35 35 35 34 34 35 34 32 30 30 30 29 28 31 35 39 40 40 44 43
30 30 32 35 34 34 36 37 38 37 38 39 40 39 37 36 36 34 34 33 32 33 34 34 33 32 31 31 32 33 33 32 32 31 28 27 26 28 33 36 40 43 44
32 31 34 34 34 34 35 38 37 38 38 38 37 35 35 33 32 31 32 31 31 30 30 29 27 26 25 25 25 29 32 33 33 31 31 30 29 30 32 34 37 39 40
33 33 33 35 35 35 35 34 36 37 37 36 34 33 32 32 31 29 29 30 29 26 24 21 20 21 23 24 25 24 24 24 26 29 31 31 32 31 30 30 34 37 37
32 31 32 32 33 34 34 34 35 36 35 33 31 31 31 29 29 28 28 28 24 22 20 23 24 27 28 25 23 24 21 19 17 19 24 27 29 31 33 34 34 34 36
32 33 31 29 31 32 33 34 34 34 32 31 30 30 31 29 27 28 29 26 25 27 26 23 27 27 27 37 37 37 29 24 25 30 28 30 29 30 32 32 34 35 38
Wind_Direction
303 254 266 264 254 260 262 277 293 305 313 316 319 321 324 329 333 339 340 341 339 338 337 339 338 338 335 334 334 333 328 330 330 331 331 332 334 340 333 338 334 329 328
344 274 238 260 258 261 266 280 292 305 311 315 318 321 323 326 330 335 336 337 337 337 337 336 337 336 335 335 334 333 333 333 332 330 329 325 327 326 329 329 331 326 325
37 102 173 230 252 260 271 280 292 305 313 316 320 321 323 324 323 324 326 327 333 334 334 334 333 332 333 332 332 332 331 329 332 330 332 323 318 317 325 327 322 325 322
345 53 92 200 246 258 273 282 293 303 312 316 316 315 315 316 319 322 324 324 327 329 331 332 332 331 331 331 331 331 330 330 327 332 330 327 321 316 311 321 324 319 318
340 325 307 318 325 285 275 286 296 303 310 315 316 316 315 317 318 320 321 322 324 325 326 327 327 327 328 328 327 327 327 327 326 325 324 323 321 316 313 304 311 316 319
357 350 326 328 323 316 302 293 293 298 305 310 313 314 314 314 314 315 316 318 320 320 321 323 324 324 324 324 324 324 324 323 322 320 319 319 318 315 312 309 307 308 316
2 5 355 336 321 312 311 306 298 299 305 309 311 313 314 314 313 314 314 314 315 316 317 318 319 319 320 320 321 321 320 319 318 317 316 315 313 311 309 308 306 306 307
5 10 7 354 332 320 316 313 306 304 306 309 312 313 313 314 315 314 314 314 314 315 316 316 316 317 317 318 318 317 316 315 313 312 311 311 309 308 307 306 306 303 304
1 356 347 336 326 320 318 316 312 311 311 311 312 312 313 313 314 314 314 313 313 313 313 313 314 314 314 314 314 313 313 312 310 308 307 305 305 304 304 302 303 302 299
347 340 331 325 324 323 323 323 320 316 314 313 313 313 314 315 314 313 312 311 312 312 312 312 312 312 311 311 310 309 308 306 305 304 302 301 301 300 299 298 296 296 293
336 332 328 329 331 328 325 323 321 319 316 316 316 315 314 314 312 311 311 312 312 311 310 310 309 309 308 308 306 305 304 302 301 301 299 298 298 297 296 295 292 290 287
328 328 335 333 333 329 328 325 322 320 318 316 315 313 312 312 312 311 311 311 310 310 309 308 307 306 306 306 305 302 302 299 298 297 297 296 297 294 294 292 290 287 285
342 343 340 336 334 333 330 326 324 321 320 317 315 314 313 313 311 312 312 312 311 310 309 308 306 306 306 305 304 302 300 299 297 296 295 294 293 292 291 289 287 285 284
339 340 339 337 334 330 327 324 322 321 319 318 316 315 314 314 313 312 312 312 312 309 308 307 306 305 304 304 302 301 299 297 295 294 292 291 290 289 288 286 285 283 281
333 334 332 331 328 326 324 322 321 321 320 319 317 316 316 315 314 313 313 312 311 310 309 308 306 305 305 304 302 300 297 295 293 291 290 288 287 285 284 283 282 280 278
328 329 328 327 326 325 325 325 324 323 322 320 318 317 316 316 316 315 313 312 311 310 309 307 305 304 304 303 301 300 297 295 293 291 289 287 285 282 280 278 276 274 274
330 330 332 331 330 330 329 326 325 325 323 320 319 318 317 316 315 314 313 312 310 310 309 307 306 304 304 304 302 299 297 295 293 291 289 287 285 283 280 277 274 270 268
332 333 332 332 332 332 330 328 327 325 324 322 320 319 317 317 317 315 315 314 314 311 309 308 307 305 304 303 301 299 297 294 292 291 289 287 285 283 281 278 274 269 266
333 331 332 332 332 331 331 329 328 328 326 325 324 323 321 319 319 317 316 315 314 313 311 310 309 307 306 306 303 301 299 295 293 292 290 288 285 283 281 277 273 271 266
334 334 334 334 332 331 331 330 329 329 329 328 326 325 323 321 320 320 320 320 319 316 316 314 313 311 309 308 305 303 301 298 296 294 292 288 284 282 280 277 274 270 268
334 336 335 335 336 336 336 334 335 334 333 331 330 329 328 327 327 326 326 325 325 323 322 320 318 316 315 313 310 306 304 301 298 295 294 293 289 284 279 277 274 270 270
337 338 337 336 339 340 340 338 337 338 337 336 334 334 333 333 332 332 332 332 332 330 328 326 325 323 320 317 313 309 305 303 300 297 294 291 289 287 282 279 276 271 268
337 340 337 338 341 343 342 339 340 340 340 339 338 338 338 339 340 339 338 337 337 335 335 335 334 334 333 329 324 317 310 305 303 301 298 294 290 286 283 280 276 272 267
338 339 340 339 341 343 344 344 342 342 342 342 341 343 344 343 343 344 343 342 341 342 341 340 336 334 333 330 327 324 320 315 310 305 300 296 291 288 286 282 277 271 266
339 342 342 342 343 345 345 346 345 345 345 345 345 347 346 346 346 347 347 345 346 344 340 341 340 337 334 334 332 328 326 321 312 308 304 297 293 286 282 279 275 271 264
342 340 343 346 346 346 347 347 348 348 348 347 347 348 347 348 349 349 349 349 348 346 345 345 342 340 336 317 318 318 326 326 321 308 303 295 290 284 281 277 270 264 258